Location: *
(2.5500°S, 65.9667°W)
Time: 07:01:09
(UTC+00:00)

Explorer 7 - Pass Details

Date: 26 April 2024
Orbit: 467 x 625 km, 50.3° (Epoch: 26 May)

Event Time Altitude Azimuth Distance (km) Brightness Sun altitude
Rises 10:45:06 0° 243° (WSW) 2,654 9.7 5.1°
Reaches altitude 10° 10:47:44 10° 261° (W) 1,795 8.8 5.7°
Maximum altitude 10:50:43 19° 308° (NW) 1,329 8.5 6.4°
Drops below altitude 10° 10:53:49 10° 355° (N) 1,863 9.7 7.2°
Sets 10:56:38 0° 12° (NNE) 2,791 10.8 7.9°
